Skip Page Navigation
NASA JPL Caltech
NASA Logo - Jet Propulsion Laboratory + View the NASA Portal
+ Center for Near-Earth Object Studies
JPL Home Earth Solar System Stars & Galaxies Technology
JPL Solar System Dynamics
BODIES ORBITS EPHEMERIDES TOOLS PHYSICAL DATA DISCOVERY FAQ SITE MAP
JPL Small-Body Database Browser
Search: [ help ]  
299 Thora (A890 TA)
Classification: Main-belt Asteroid          SPK-ID: 2000299
Ephemeris | Orbit Diagram | Orbital Elements | Mission Design | Physical Parameters | Discovery Circumstances ]

[ show orbit diagram ]
Orbital Elements at Epoch 2459000.5 (2020-May-31.0) TDB
Reference: JPL 46 (heliocentric ecliptic J2000)
 Element Value Uncertainty (1-sigma)   Units 
e .06198375636697565 3.2801e-08  
a 2.434183016165371 6.3331e-09 au
q 2.283303209138746 8.095e-08 au
i 1.606248930722582 3.2747e-06 deg
node 241.4825012817325 0.00012304 deg
peri 152.0781185525064 0.00012578 deg
M 42.83536216717238 2.5855e-05 deg
tp 2458835.445180057217
(2019-Dec-17.94518006)
9.9631e-05 TDB
period 1387.165467342286
3.80
5.4135e-06
1.482e-08
d
yr
n .2595220314197523 1.0128e-09 deg/d
Q 2.585062823191995 6.7256e-09 au
  Orbit Determination Parameters
   # obs. used (total)      3202  
   data-arc span      32138 days (87.99 yr)  
   first obs. used      1932-11-04  
   last obs. used      2020-10-31  
   planetary ephem.      DE431  
   SB-pert. ephem.      SB431-N16  
   condition code      0  
   norm. resid. RMS      .41  
   source      ORB  
   producer      Otto Matic  
   solution date      2020-Nov-13 04:31:09  

Additional Information
 Earth MOID = 1.28927 au 
 Jupiter MOID = 2.65592 au 
 T_jup = 3.502 
[ show covariance matrix ]

Ephemeris | Orbit Diagram | Orbital Elements | Mission Design | Physical Parameters | Discovery Circumstances ]

Physical Parameter Table
Parameter Symbol Value Units Sigma Reference Notes
absolute magnitude H 11.3   n/a MPO302059  
diameter diameter 15.757 km 0.081 urn:nasa:pds:neowise_diameters_albedos::2.0[mainbelt] (http://adsabs.harvard.edu/abs/2014ApJ...791..121M)  
rotation period rot_per 272.9 h n/a LCDB (Rev. 2019-August); Warner et al., 2009 Published Reference List:
[Pilcher, F.; Alvarez, E.M.; Pravec, P. (2014) Minor Planet Bull. 41, 209-210.]
[Pilcher, F.; Franco, L.; Pravec, P. (2017) Minor Planet Bull. 44, 270-274.]
geometric albedo albedo 0.251   0.037 urn:nasa:pds:neowise_diameters_albedos::2.0[mainbelt] (http://adsabs.harvard.edu/abs/2014ApJ...791..121M)  

299 Thora (A890 TA)          Discovered 1890-Oct-06 by Palisa, J. at Vienna
Reference: DISCOVERY.DBLast Updated: 2003-08-29

Alternate Designations
 A890 TA = 1935 PC = 1939 PK 
Ephemeris | Orbit Diagram | Orbital Elements | Mission Design | Physical Parameters | Discovery Circumstances ]
ABOUT SSD CREDITS/AWARDS PRIVACY/COPYRIGHT GLOSSARY LINKS
FirstGov 2020-Dec-04 03:10 UT
(server date/time)  
NASA Home Page
Site Manager:   Ryan S. Park
Webmaster  Alan B. Chamberlin